Find Starlink 5472

NORAD ID: 54767 Int'l Des: 2022-175 Owner: SPXS Country: US Constellation: starlink operational
LEOCIRCULAR

当前视图

正在加载3D地球...

About Starlink 5472

Starlink 5472 (NORAD 54767) is a starlink constellation satellite (v1.5) launched Dec 17, 2022 by SPXS of US. It operates in LEO, CIRCULAR orbit with a mass of 305.00 kg.

关于 Starlink 5472

正在加载描述...

即将过境

Passes for default location (London). Set your location on the main map for personalized predictions.

高度历史

Loading altitude history...

两行轨道根数

1 54767U 22175K 26171.38817288 .00000094 00000-0 23972-4 0 9998
2 54767 53.1602 302.9247 0001176 88.6786 271.4341 15.08830834195426
Epoch: Jun 20, 2026 • Age: 27 hours

当前状态

高度 541.8 km
速度 7.59 km/s
星下点 -5.96°S, 160.94°W
发射日期 Dec 17, 2022
运行时间 3.5 years
类型 internet

技术详情

分类 Payload
质量 305.00 kg
干质量 290.00 kg
总质量 305.00 kg
长度 0.20 m
直径 2.80 m
跨度 9.00 m
形状 Box + pan
制造商 SPXS
平台类型 Starlink
阶段状态 In Orbit
所有者/国家 SPXS/US

Most Searched